Location: Castle Hill Houses
(40.8186°N, 73.8497°W)
Time: 05:49:20
(UTC+00:00)

Lacrosse 5 - Pass Details

Date: 26 January 2020
Orbit: 717 x 722 km, 57.0° (Epoch: 17 February)

Event Time Altitude Azimuth Distance (km) Brightness Sun altitude
Exits shadow 10:09:33 52° 227° (SW) 895 2.0 -23.0°
Maximum altitude 10:10:49 87° 313° (NW) 724 1.7 -22.8°
Drops below altitude 10° 10:15:55 10° 44° (NE) 2,206 4.9 -21.8°
Sets 10:18:18 0° 45° (NE) 3,128 5.7 -21.4°
